Powrót do katalogu

ARIANE 5 DEB

SYLDA

AktywnyGTO
NORAD 28887·DEBRIS·🇫🇷 France

Wystrzelony Oct 13, 2005 z Guiana Space Centre

Loading…

TLE

NieaktualneSource: Space-Track

Epoka: Sep 13, 2026, 16:08 UTC

1 28887U 05041D   26256.67274005  .00000055  00000-0  14509-2 0  9996
2 28887   7.0922 119.9051 7160907 182.0902 171.3797  2.27530179173016

Śledź ARIANE 5 DEB w czasie rzeczywistym z AllMySat

Download on the App Store